Location: Castelnau
(43.6639°N, 0.8431°W)
Time: 21:51:14
(UTC+00:00)

Cosmos 2084 - Pass Details

Date: 13 January 2026
Orbit: 535 x 565 km, 62.8° (Epoch: 11 February)

Event Time Altitude Azimuth Distance (km) Brightness Sun altitude
Exits shadow 06:26:37 17° 271° (W) 1,457 4.9 -12.1°
Maximum altitude 06:28:56 27° 318° (NW) 1,082 4.3 -11.7°
Drops below altitude 10° 06:32:32 10° 18° (NNE) 1,844 6.0 -11.1°
Sets 06:35:01 0° 31° (NNE) 2,736 7.0 -10.7°
